Temp
-2 -2 -2 -2 -2 -2 -2 -2 -3 -3 -3 -3 -3 -3 -3 -3 -3 -3 -3 -4 -4 -5 -6 -7 -8 -9 -9
-3 -3 -3 -3 -2 -2 -3 -3 -4 -4 -4 -4 -4 -4 -3 -4 -4 -4 -5 -5 -6 -7 -8 -8 -9 -10 -11
-4 -4 -4 -3 -3 -3 -4 -4 -4 -4 -4 -4 -4 -4 -5 -5 -6 -6 -7 -7 -8 -8 -9 -10 -11 -11 -11
-5 -4 -4 -3 -4 -4 -4 -4 -4 -5 -4 -5 -5 -5 -5 -6 -7 -7 -8 -9 -10 -11 -11 -12 -12 -12 -12
-5 -5 -5 -5 -4 -4 -5 -5 -5 -5 -5 -5 -6 -7 -7 -8 -9 -10 -10 -11 -11 -12 -12 -12 -13 -13 -13
-5 -5 -6 -5 -5 -5 -5 -5 -5 -5 -4 -6 -7 -8 -8 -9 -10 -11 -12 -12 -13 -13 -13 -13 -13 -13 -13
-6 -6 -6 -6 -6 -6 -6 -6 -6 -6 -5 -6 -7 -8 -9 -11 -12 -12 -13 -13 -14 -14 -14 -14 -14 -14 -14
-6 -6 -6 -6 -7 -7 -6 -6 -6 -7 -7 -6 -8 -9 -10 -11 -12 -13 -14 -14 -14 -14 -14 -14 -14 -14 -14
-7 -7 -7 -7 -7 -7 -6 -6 -7 -8 -9 -9 -9 -10 -10 -11 -12 -13 -14 -15 -15 -15 -15 -15 -15 -15 -15
-7 -7 -7 -7 -7 -7 -7 -8 -9 -9 -9 -9 -11 -12 -11 -11 -12 -14 -15 -15 -15 -15 -15 -15 -15 -15 -15
-8 -8 -8 -8 -8 -8 -8 -9 -10 -10 -11 -12 -12 -13 -13 -13 -13 -14 -15 -15 -15 -15 -16 -16 -16 -16 -16
-8 -8 -9 -9 -9 -9 -10 -10 -11 -12 -12 -13 -13 -14 -14 -14 -14 -14 -15 -15 -15 -15 -15 -16 -16 -17 -17
-9 -9 -9 -10 -10 -10 -11 -11 -13 -13 -14 -14 -15 -15 -15 -15 -15 -15 -15 -15 -16 -16 -16 -16 -17 -17 -17
-9 -9 -10 -10 -11 -11 -12 -12 -13 -15 -15 -15 -15 -16 -16 -16 -16 -16 -16 -16 -16 -17 -17 -17 -17 -17 -17
-9 -10 -11 -11 -12 -12 -12 -13 -14 -15 -15 -16 -16 -16 -16 -16 -16 -17 -17 -17 -17 -17 -17 -16 -17 -17 -17
-11 -11 -12 -12 -12 -13 -14 -14 -15 -15 -16 -16 -16 -16 -16 -17 -18 -17 -17 -17 -17 -17 -17 -17 -16 -17 -17
-12 -12 -12 -13 -14 -14 -15 -15 -15 -16 -16 -17 -17 -17 -16 -16 -16 -18 -17 -17 -17 -17 -17 -17 -17 -17 -17
Height
3118 3117 3116 3115 3115 3113 3114 3112 3110 3106 3102 3098 3094 3089 3084 3080 3076 3071 3065 3060 3053 3047 3041 3035 3031 3027 3022
3110 3110 3110 3109 3107 3107 3106 3104 3101 3097 3094 3091 3086 3082 3075 3070 3065 3058 3052 3048 3042 3036 3031 3025 3020 3017 3013
3104 3104 3103 3103 3099 3097 3096 3094 3091 3088 3086 3083 3077 3070 3064 3060 3054 3048 3042 3037 3032 3025 3021 3017 3012 3008 3004
3099 3097 3098 3096 3092 3090 3089 3086 3083 3078 3076 3072 3068 3061 3056 3049 3044 3039 3032 3027 3021 3018 3012 3008 3003 2998 2994
3092 3091 3089 3088 3086 3084 3081 3077 3075 3072 3070 3064 3059 3053 3045 3040 3035 3029 3023 3017 3012 3006 3003 2998 2993 2989 2984
3084 3084 3083 3082 3080 3077 3073 3069 3069 3065 3060 3058 3050 3044 3037 3031 3026 3021 3014 3007 3001 2997 2993 2988 2984 2979 2975
3078 3078 3076 3074 3072 3069 3067 3063 3059 3055 3049 3045 3039 3035 3028 3021 3016 3011 3004 2997 2992 2987 2983 2978 2975 2971 2966
3072 3071 3069 3066 3063 3062 3059 3056 3052 3047 3039 3032 3027 3023 3018 3013 3008 3001 2994 2988 2983 2978 2974 2970 2966 2962 2958
3065 3064 3060 3058 3057 3053 3051 3046 3041 3038 3031 3023 3018 3012 3008 3004 2999 2992 2985 2979 2975 2970 2965 2961 2957 2953 2949
3057 3055 3052 3051 3049 3045 3041 3037 3033 3027 3020 3013 3009 3001 2996 2991 2987 2983 2978 2973 2969 2964 2958 2952 2947 2942 2937
3051 3048 3046 3044 3041 3037 3033 3027 3023 3019 3011 3002 2998 2991 2985 2981 2980 2975 2969 2965 2961 2956 2951 2945 2940 2932 2927
3044 3042 3041 3039 3035 3030 3025 3018 3015 3010 3003 2994 2987 2982 2977 2975 2971 2968 2962 2958 2952 2947 2942 2937 2932 2925 2919
3038 3035 3035 3033 3028 3021 3016 3011 3007 3000 2992 2985 2980 2976 2973 2969 2963 2959 2953 2949 2945 2939 2933 2928 2923 2917 2911
3031 3029 3028 3024 3019 3013 3008 3003 2999 2994 2987 2980 2975 2971 2968 2963 2958 2953 2947 2939 2936 2932 2926 2921 2917 2911 2905
3025 3023 3020 3016 3010 3004 2998 2994 2989 2985 2983 2978 2971 2965 2961 2956 2952 2947 2939 2935 2930 2925 2919 2914 2911 2906 2900
3017 3014 3011 3008 3002 2996 2990 2986 2983 2979 2975 2969 2964 2960 2956 2953 2948 2941 2934 2927 2923 2918 2913 2906 2904 2901 2895
3009 3007 3004 2999 2993 2988 2985 2981 2978 2973 2968 2963 2958 2952 2947 2942 2942 2937 2927 2921 2914 2910 2906 2902 2896 2894 2888
Wind_Speed
22 23 21 22 24 24 31 32 33 34 36 38 40 41 43 44 46 49 51 53 54 54 55 53 50 47 45
23 21 22 24 27 31 30 33 34 35 37 39 40 42 44 47 49 50 52 54 55 55 53 52 49 46 43
21 23 25 29 30 32 32 33 34 35 37 39 41 44 47 48 49 50 51 52 52 53 51 48 46 43 41
26 25 26 30 31 33 33 32 33 35 38 40 43 46 49 50 51 52 51 50 50 49 47 45 43 41 39
36 27 28 29 31 31 31 31 33 37 39 41 43 45 47 48 49 48 48 47 48 46 45 44 43 42 41
22 25 28 29 29 30 31 33 33 37 42 39 44 44 47 46 45 44 45 45 45 45 44 44 44 43 42
24 26 27 27 27 29 33 34 37 41 46 46 46 47 47 44 42 41 43 44 44 43 44 44 44 43 41
25 26 27 27 27 30 33 37 39 41 47 52 50 50 46 42 40 39 39 40 40 42 42 42 41 42 42
25 25 26 27 29 32 36 40 43 42 45 51 50 51 47 42 39 38 38 37 38 39 40 40 41 41 41
23 24 26 28 30 34 38 41 43 46 48 54 49 49 48 43 41 37 35 34 34 35 37 38 38 39 39
23 25 27 29 33 36 39 41 42 45 47 50 48 46 45 44 38 33 33 33 32 32 33 34 35 38 39
23 25 28 30 34 36 39 41 42 43 44 45 45 44 43 40 35 31 32 32 32 33 35 35 35 35 35
24 26 29 32 35 36 39 40 39 40 42 43 42 41 38 35 34 33 34 34 35 36 37 36 35 34 34
25 27 30 32 34 37 38 39 37 33 34 38 39 37 34 32 33 34 35 38 39 37 38 35 31 29 33
27 28 29 31 34 37 39 39 37 36 31 29 31 32 32 32 33 33 37 37 36 36 35 34 28 26 30
26 28 30 32 34 36 37 36 33 30 28 28 29 29 29 28 28 33 37 37 36 35 34 34 29 25 28
26 29 31 32 33 33 32 30 28 27 26 27 29 32 34 34 31 27 35 35 38 36 33 31 30 26 27
Wind_Direction
267 271 277 281 285 297 297 297 299 303 305 307 308 309 309 309 310 310 309 308 308 307 307 307 307 308 308
268 276 282 293 293 288 296 295 300 303 305 306 307 306 308 309 308 308 308 307 307 307 307 308 308 308 308
266 272 290 289 289 293 295 298 299 303 303 304 307 307 308 308 310 309 308 307 306 304 303 305 306 307 307
269 284 276 279 285 292 295 298 299 301 304 306 308 309 310 312 311 308 307 306 305 304 304 306 307 306 305
270 267 280 283 287 288 292 297 301 302 305 308 309 309 308 309 308 307 306 303 302 303 305 306 305 304 304
272 279 281 284 286 292 298 298 299 302 303 308 309 308 308 309 308 307 303 302 302 303 304 304 303 303 304
276 279 278 283 292 295 298 304 305 307 306 309 309 310 312 311 310 305 302 302 302 302 303 302 301 300 300
277 279 284 290 295 300 302 304 306 309 311 311 313 312 312 311 310 306 303 302 302 301 299 299 298 296 297
276 283 290 296 299 303 306 308 310 313 312 311 313 311 312 312 309 309 309 306 303 302 302 301 299 298 299
280 286 293 299 304 306 308 311 312 314 314 312 313 312 312 315 314 313 307 304 304 303 302 302 305 305 305
288 296 301 303 306 307 309 312 315 315 312 311 313 315 316 314 313 311 308 307 307 306 306 308 310 310 309
292 297 300 302 304 308 312 314 314 311 311 312 315 316 314 314 314 311 310 311 312 311 312 313 315 314 312
291 296 298 302 306 310 311 312 314 314 315 314 313 312 312 314 315 316 315 314 316 316 316 318 317 314 312
290 296 301 305 308 310 310 312 315 313 311 310 308 309 312 313 314 317 317 316 317 317 315 315 317 314 311
292 298 303 308 308 310 314 315 316 315 310 304 304 307 311 314 317 319 314 313 313 315 315 315 318 315 312
297 305 306 307 311 314 315 316 315 311 310 309 308 308 310 311 316 316 312 314 314 316 318 318 317 320 317
304 304 306 312 315 315 315 313 311 312 314 314 314 314 315 317 322 324 315 315 315 316 317 318 316 319 324